Wind_Speed
26 24 25 26 25 25 26 26 26 25 25 25 27 28 29 31 32 31 29 28 28 28 29 29 29 28 27 26 27 27 27 27 27 26 26 26 25 25 24 23 23 24 24 24
27 26 26 27 26 26 27 27 27 27 27 26 28 29 30 31 33 32 30 30 30 30 31 30 30 30 30 29 29 29 28 28 29 28 28 27 27 27 26 25 25 25 26 26
27 26 27 28 26 26 26 26 27 28 29 30 30 31 30 31 32 31 30 30 31 31 31 31 30 31 31 31 31 30 29 29 30 30 29 29 29 29 28 28 27 27 28 28
29 28 29 27 26 28 30 29 29 31 32 33 32 32 32 32 34 33 32 31 31 30 30 31 31 31 31 32 32 32 32 31 32 32 32 32 32 31 31 31 30 30 30 30
31 30 29 27 27 28 29 30 30 31 32 32 32 33 34 35 35 34 34 33 32 31 31 31 31 31 31 31 31 32 33 33 33 33 33 33 34 33 32 32 32 32 32 32
32 31 30 26 27 28 29 30 31 31 32 31 32 33 34 35 35 34 35 35 35 34 33 33 32 32 33 32 32 33 33 33 34 34 35 35 35 35 34 34 34 34 33 34
33 33 31 29 28 29 31 32 31 31 32 33 33 35 36 36 35 34 34 35 35 33 33 33 33 33 33 33 33 33 33 34 34 35 36 36 35 35 35 36 36 35 36 36
33 33 32 30 30 32 33 33 33 33 33 34 35 35 36 36 36 35 36 36 35 34 34 34 34 33 33 34 34 34 34 34 35 36 36 36 36 36 36 36 37 37 37 37
32 33 33 33 34 35 36 35 34 34 34 35 35 35 35 36 36 36 36 36 35 36 35 34 34 33 34 35 35 35 35 36 36 36 37 36 36 37 37 38 38 38 39 39
33 33 33 35 36 37 37 36 36 36 36 36 37 37 36 36 36 36 36 36 37 37 36 35 34 34 34 35 35 36 36 37 36 36 36 36 36 37 37 38 38 38 38 38
35 35 35 36 36 36 36 37 37 37 37 37 37 37 37 37 37 35 35 35 35 36 36 36 35 34 34 34 34 35 36 36 36 36 36 35 35 36 37 38 38 38 37 37
34 34 34 34 35 35 36 36 36 36 36 36 37 38 37 36 36 35 35 35 33 33 34 34 34 34 33 34 34 35 35 34 35 35 35 34 35 35 35 35 36 35 34 34
33 33 33 34 35 35 35 35 35 35 35 36 36 36 36 36 35 34 34 33 33 33 32 32 32 32 32 33 34 34 34 33 33 33 32 33 33 33 33 32 32 32 32 32
32 32 32 32 33 34 34 33 33 33 34 35 35 35 34 34 34 34 33 33 32 32 31 31 32 32 32 32 32 32 32 32 32 31 31 32 32 32 32 31 31 30 30 31
31 31 32 32 32 33 32 32 32 32 33 33 33 33 32 32 32 32 32 32 32 32 31 31 31 31 31 31 31 31 31 31 31 31 31 31 31 31 31 31 30 30 31 32
31 31 30 31 31 31 31 31 30 31 31 31 31 31 30 30 31 31 31 31 31 31 31 30 29 29 28 28 29 30 30 30 29 30 30 30 30 29 29 29 29 29 30 31
29 29 29 29 29 29 29 29 29 29 30 30 30 30 30 30 29 29 29 29 29 29 29 28 28 28 28 28 28 28 29 28 28 29 29 29 29 29 28 28 28 28 28 29
26 27 27 27 27 27 26 26 27 28 28 28 29 29 29 28 28 27 27 26 26 26 27 27 27 27 27 27 27 27 27 27 27 27 28 28 28 28 28 27 27 27 27 27
24 24 24 25 25 25 25 25 25 25 25 26 27 27 26 26 25 25 25 25 25 25 26 26 26 26 26 26 26 26 26 26 27 27 26 25 25 25 25 25 25 25 25 26
22 22 22 22 22 22 23 23 23 23 23 24 24 24 23 23 23 23 23 23 24 25 24 25 25 24 24 24 25 25 25 25 25 24 24 23 23 23 23 23 24 24 25 25
20 21 21 21 20 19 19 19 20 20 21 21 21 21 21 21 21 21 21 21 21 22 22 23 23 22 22 22 22 23 22 22 22 21 20 20 20 21 22 23 23 23 24 24
18 17 17 17 16 16 16 17 17 17 18 18 18 19 19 20 20 20 20 20 20 21 21 21 21 21 21 21 21 21 21 20 20 19 19 20 21 21 22 23 23 23 24 24
14 14 14 15 15 15 15 15 15 15 15 16 16 16 17 17 18 18 18 19 19 20 20 20 19 19 19 20 20 19 19 19 19 20 20 21 21 22 22 22 22 23 23 23
13 13 13 14 14 14 14 14 14 14 15 15 16 16 15 15 16 17 17 17 18 18 19 19 19 19 18 18 18 19 19 20 20 21 20 20 20 20 20 21 22 23 23 23
13 12 12 13 13 13 13 13 13 14 14 14 14 15 15 15 14 14 14 15 15 15 16 16 17 18 19 19 19 19 20 20 20 21 20 20 20 21 22 23 23 23 23 23
12 12 12 12 12 12 12 12 13 13 14 13 14 14 14 14 14 13 12 12 12 12 12 13 14 16 16 17 17 17 17 18 19 20 20 21 21 23 23 24 24 24 24 24
11 11 11 11 11 11 11 11 11 12 12 12 12 12 11 11 11 11 11 11 11 11 11 12 13 14 15 15 16 16 17 17 18 18 19 20 22 23 23 23 24 24 25 26
Wind_Direction
248 247 248 250 251 253 253 252 253 256 258 261 265 268 268 269 268 268 269 268 267 267 268 270 270 268 268 269 271 271 271 272 274 273 273 274 276 278 278 279 282 286 288 290
253 251 252 251 251 254 259 260 259 257 259 262 266 268 269 270 271 269 268 268 267 267 268 268 268 267 265 268 270 269 270 271 272 271 271 273 274 276 276 277 280 283 286 289
257 256 257 257 257 257 256 256 258 260 260 261 263 267 270 271 270 271 271 269 268 268 268 267 266 265 265 265 267 269 269 268 270 270 271 271 270 273 275 275 277 280 283 285
258 257 257 257 258 257 256 256 258 259 259 260 262 265 266 266 268 270 270 269 268 266 267 267 266 265 264 264 264 265 265 266 267 268 269 270 269 270 271 273 275 279 281 283
258 260 261 261 262 260 259 258 257 258 258 261 263 266 268 267 268 270 272 269 268 267 268 268 267 265 266 264 262 264 264 265 265 267 267 269 269 271 272 273 275 279 281 282
258 260 261 261 264 262 261 261 259 259 260 261 261 264 267 268 270 271 272 271 271 270 269 269 267 267 266 265 264 264 264 265 266 267 267 269 270 271 271 273 275 278 279 281
259 261 262 260 262 264 264 263 262 261 262 264 263 264 266 269 271 272 273 273 271 270 269 269 267 266 267 265 265 265 265 265 267 269 271 271 269 269 272 274 276 278 280 281
259 260 259 260 261 261 263 264 264 264 263 264 265 267 269 270 271 272 274 273 270 270 268 268 266 265 266 265 264 264 265 266 268 270 272 272 271 271 273 274 276 278 280 280
258 258 258 257 260 261 261 261 262 264 264 264 265 269 270 271 272 272 274 273 270 270 269 267 266 265 265 264 263 264 267 268 270 271 272 272 273 273 274 275 276 277 278 279
259 261 260 258 259 260 261 262 264 265 266 265 267 268 270 272 274 274 275 274 272 269 268 267 265 265 265 265 264 265 266 268 269 270 271 272 273 274 275 275 276 277 277 277
257 258 259 260 261 261 261 262 263 265 266 265 267 270 271 273 274 274 274 273 272 270 268 266 264 264 264 264 264 265 267 267 268 269 270 271 273 274 275 275 276 277 277 278
259 259 262 263 263 262 263 264 265 266 266 265 266 269 272 273 273 273 273 272 272 270 267 265 263 263 263 263 266 266 266 268 269 270 271 272 271 272 273 275 276 276 277 279
260 261 264 265 265 265 265 265 265 266 266 267 268 270 270 270 271 272 273 272 272 270 268 266 264 263 263 264 266 267 268 269 271 271 271 271 273 274 275 276 277 277 278 280
262 264 265 266 266 266 266 265 266 267 268 268 268 270 270 270 270 271 272 273 271 268 268 267 264 263 263 263 265 266 268 271 272 272 272 273 275 276 277 278 278 278 279 280
264 266 267 266 266 266 266 266 266 267 268 269 268 269 271 271 271 272 272 271 269 268 268 267 265 263 263 264 265 267 270 271 272 273 274 275 276 278 278 279 279 279 280 281
265 267 267 266 267 268 268 268 268 267 267 267 268 269 271 272 272 270 270 270 268 267 267 267 266 263 262 264 265 268 270 271 272 273 275 275 275 276 277 279 281 282 282 282
267 268 266 265 267 269 268 269 268 267 266 267 269 270 271 272 272 271 270 269 267 265 265 264 263 262 261 262 264 267 268 270 271 272 273 273 273 274 275 277 280 282 283 284
266 267 267 267 268 268 268 267 268 268 266 267 268 269 271 272 272 272 270 268 266 264 264 264 264 263 262 262 264 266 269 271 272 273 272 274 274 273 274 276 279 281 283 284
266 266 267 267 268 268 268 268 268 267 266 268 270 270 271 273 272 270 268 266 264 264 265 265 264 264 264 263 264 266 269 271 273 274 274 273 274 274 275 277 279 281 282 283
266 268 270 269 268 268 268 267 267 266 268 269 269 269 270 270 269 267 267 266 265 264 263 260 261 262 263 263 265 267 270 271 272 272 272 272 272 273 274 276 279 281 282 283
267 268 268 269 268 268 269 268 267 267 269 269 268 267 268 268 266 267 268 267 264 262 262 261 260 259 260 261 263 266 269 271 273 273 272 272 273 275 276 278 279 282 283 283
269 269 267 267 266 266 266 267 267 268 269 268 268 268 269 269 268 269 270 269 265 261 260 260 260 261 260 261 262 264 266 268 272 273 273 272 273 275 277 279 280 281 282 283
268 267 266 266 266 266 267 266 267 269 270 270 270 270 271 270 269 270 270 270 267 264 261 261 262 261 261 261 262 264 268 270 272 272 272 273 275 276 278 280 282 283 282 284
268 268 266 265 267 268 267 266 268 270 271 274 274 272 271 271 270 271 271 271 269 266 262 260 260 260 260 261 264 266 267 270 271 271 270 272 275 278 280 283 284 285 286 286
270 268 270 270 271 271 271 270 269 269 271 274 276 276 273 272 271 272 273 270 267 266 264 263 263 262 263 264 264 265 267 269 270 271 271 274 279 282 283 284 286 286 287 288
271 269 270 274 274 272 271 270 270 271 273 275 277 281 279 274 271 271 273 274 274 274 270 266 265 263 263 264 267 268 271 275 278 277 276 277 282 285 284 285 286 287 287 288
271 271 273 275 275 274 273 273 273 273 274 275 276 279 277 271 268 269 272 274 274 273 273 272 270 268 267 270 276 279 280 279 280 283 285 286 286 284 285 286 285 286 287 287
Height
5858 5861 5862 5864 5866 5867 5867 5868 5869 5870 5870 5869 5867 5867 5864 5864 5864 5865 5865 5865 5866 5866 5866 5865 5865 5865 5865 5865 5867 5868 5869 5869 5870 5870 5870 5870 5871 5871 5871 5871 5871 5871 5870 5869
5851 5853 5854 5855 5858 5859 5860 5861 5861 5861 5862 5861 5859 5858 5857 5857 5856 5857 5858 5858 5858 5858 5858 5858 5858 5857 5858 5858 5860 5859 5860 5862 5862 5863 5863 5863 5864 5864 5865 5865 5865 5865 5864 5863
5843 5845 5846 5847 5849 5851 5852 5853 5853 5853 5854 5852 5850 5850 5849 5849 5848 5848 5849 5850 5849 5849 5849 5849 5850 5850 5851 5852 5852 5852 5852 5853 5854 5855 5856 5856 5856 5857 5857 5857 5857 5857 5856 5856
5834 5837 5837 5841 5842 5842 5842 5843 5844 5843 5843 5842 5842 5841 5841 5840 5840 5840 5841 5840 5840 5839 5840 5841 5841 5842 5842 5843 5844 5844 5845 5846 5846 5847 5847 5848 5848 5849 5849 5849 5848 5848 5849 5848
5826 5827 5829 5832 5832 5833 5832 5833 5833 5833 5833 5834 5834 5833 5831 5831 5831 5831 5832 5831 5831 5831 5832 5832 5833 5833 5834 5833 5834 5836 5836 5837 5838 5838 5839 5839 5840 5840 5841 5841 5840 5840 5840 5839
5817 5818 5821 5824 5824 5823 5824 5823 5822 5822 5823 5824 5824 5823 5823 5822 5822 5821 5822 5823 5823 5823 5823 5824 5824 5824 5825 5825 5826 5827 5828 5828 5829 5829 5829 5830 5831 5831 5831 5831 5830 5831 5830 5830
5808 5809 5811 5813 5813 5814 5816 5814 5814 5814 5814 5814 5814 5813 5813 5813 5813 5813 5812 5813 5813 5813 5813 5814 5815 5816 5816 5817 5818 5819 5819 5819 5820 5820 5821 5821 5821 5821 5821 5822 5822 5821 5821 5821
5800 5801 5804 5804 5804 5805 5804 5804 5804 5805 5805 5804 5804 5803 5804 5803 5803 5803 5802 5802 5802 5803 5804 5805 5806 5807 5807 5808 5809 5810 5810 5811 5811 5811 5811 5812 5812 5812 5812 5812 5812 5812 5811 5810
5791 5793 5793 5793 5793 5793 5793 5794 5795 5796 5796 5795 5795 5794 5794 5794 5794 5794 5793 5792 5791 5792 5793 5795 5796 5797 5798 5799 5799 5801 5801 5802 5802 5802 5802 5802 5802 5802 5802 5802 5802 5802 5801 5800
5781 5782 5783 5783 5783 5783 5784 5785 5785 5785 5786 5786 5785 5785 5784 5784 5784 5784 5783 5782 5782 5782 5783 5785 5786 5787 5789 5789 5790 5791 5792 5792 5792 5793 5793 5793 5792 5792 5792 5792 5792 5791 5790 5789
5772 5773 5773 5774 5774 5774 5774 5775 5775 5776 5776 5776 5775 5775 5775 5775 5774 5773 5773 5772 5772 5772 5773 5775 5776 5778 5779 5780 5781 5781 5782 5783 5783 5783 5783 5783 5783 5783 5782 5782 5781 5781 5780 5779
5763 5764 5764 5764 5764 5764 5765 5765 5766 5766 5766 5766 5766 5765 5764 5764 5764 5764 5763 5763 5762 5763 5763 5765 5766 5768 5770 5771 5771 5772 5773 5773 5773 5774 5774 5773 5773 5773 5772 5772 5771 5771 5770 5769
5753 5754 5754 5754 5754 5754 5755 5755 5756 5756 5756 5756 5756 5756 5755 5755 5754 5754 5753 5753 5753 5753 5754 5755 5756 5758 5760 5761 5762 5763 5763 5763 5764 5764 5764 5764 5764 5763 5763 5763 5762 5762 5761 5760
5744 5744 5745 5745 5745 5745 5745 5745 5746 5746 5746 5746 5746 5746 5746 5745 5745 5745 5745 5745 5745 5744 5745 5746 5747 5749 5751 5752 5753 5754 5754 5755 5755 5755 5755 5755 5755 5755 5754 5754 5754 5753 5752 5751
5735 5736 5736 5735 5735 5735 5735 5736 5736 5737 5737 5737 5737 5737 5737 5736 5736 5736 5736 5736 5736 5736 5737 5738 5738 5740 5741 5743 5744 5745 5745 5746 5746 5746 5746 5746 5746 5745 5745 5745 5744 5743 5743 5742
5727 5727 5727 5727 5727 5727 5726 5726 5727 5727 5728 5728 5728 5728 5728 5728 5728 5727 5727 5727 5728 5728 5729 5730 5730 5731 5732 5734 5735 5736 5736 5737 5737 5737 5737 5737 5737 5737 5737 5736 5735 5735 5733 5732
5718 5718 5718 5718 5718 5718 5717 5717 5718 5718 5718 5719 5719 5719 5719 5719 5719 5719 5719 5719 5720 5720 5721 5722 5723 5723 5724 5725 5726 5727 5728 5728 5728 5728 5728 5729 5729 5729 5728 5728 5727 5726 5725 5723
5711 5710 5710 5710 5710 5709 5709 5709 5709 5709 5709 5710 5711 5711 5711 5711 5711 5711 5711 5712 5712 5713 5713 5714 5715 5715 5716 5717 5718 5719 5719 5720 5720 5720 5720 5720 5720 5720 5720 5720 5719 5718 5716 5715
5704 5703 5703 5702 5702 5702 5702 5702 5702 5702 5702 5702 5703 5704 5704 5703 5703 5704 5704 5704 5705 5705 5706 5706 5707 5707 5708 5709 5710 5711 5711 5712 5712 5712 5712 5712 5712 5712 5712 5711 5711 5710 5709 5708
5697 5697 5696 5696 5696 5696 5695 5695 5695 5695 5695 5695 5696 5696 5697 5696 5696 5697 5697 5697 5697 5698 5698 5699 5699 5700 5701 5702 5703 5703 5704 5704 5704 5704 5704 5705 5704 5704 5704 5704 5703 5703 5702 5701
5691 5691 5691 5690 5690 5690 5690 5689 5689 5689 5690 5690 5690 5690 5690 5690 5691 5691 5691 5691 5691 5691 5692 5692 5693 5694 5694 5695 5696 5697 5697 5697 5697 5697 5698 5698 5698 5697 5697 5697 5696 5695 5694 5693
5686 5685 5685 5685 5685 5685 5685 5684 5684 5684 5684 5684 5684 5685 5685 5685 5685 5685 5685 5685 5685 5685 5686 5686 5687 5688 5688 5689 5690 5690 5691 5691 5691 5691 5691 5691 5691 5690 5690 5689 5689 5688 5687 5686
5681 5681 5681 5681 5680 5680 5680 5680 5680 5680 5680 5680 5680 5680 5679 5679 5679 5679 5680 5680 5679 5680 5680 5680 5681 5682 5683 5683 5684 5684 5685 5685 5685 5684 5684 5684 5684 5683 5683 5682 5681 5680 5679 5678
5677 5677 5677 5677 5676 5676 5676 5676 5676 5676 5676 5676 5675 5675 5675 5674 5674 5674 5674 5674 5674 5674 5675 5675 5676 5677 5678 5678 5678 5679 5679 5679 5679 5678 5677 5677 5677 5677 5676 5675 5674 5673 5672 5671
5673 5673 5673 5673 5673 5672 5672 5672 5672 5672 5672 5672 5671 5671 5670 5670 5670 5669 5669 5669 5670 5670 5670 5671 5671 5672 5672 5673 5673 5673 5673 5673 5672 5672 5671 5671 5671 5670 5670 5669 5667 5666 5665 5664
5670 5670 5669 5669 5669 5668 5668 5668 5668 5668 5668 5668 5667 5667 5666 5666 5665 5665 5665 5666 5666 5666 5666 5666 5667 5667 5667 5667 5667 5667 5667 5667 5666 5666 5666 5665 5664 5663 5663 5661 5660 5659 5658 5657
5667 5666 5666 5666 5665 5665 5664 5664 5664 5664 5664 5664 5664 5663 5663 5662 5662 5662 5662 5662 5663 5663 5663 5663 5663 5663 5663 5663 5662 5662 5662 5661 5661 5661 5660 5659 5658 5657 5656 5655 5653 5652 5651 5649